Location: Moy Burn
(57.3833°N, 4.0667°W)
Time: 11:35:44
(UTC+00:00)

Cosmos 1980 Rocket - Pass Details

Date: 08 August 2020
Orbit: 829 x 849 km, 71.0° (Epoch: 22 September)

Event Time Altitude Azimuth Distance (km) Brightness Sun altitude
Rises 22:16:31 0° 321° (NW) 3,425 7.3 -12.3°
Reaches altitude 10° 22:19:16 10° 311° (NW) 2,483 5.9 -12.5°
Maximum altitude 22:24:01 28° 254° (WSW) 1,538 3.7 -12.8°
Drops below altitude 10° 22:28:44 10° 197° (SSW) 2,459 4.2 -13.2°
Enters shadow 22:29:08 - 195° (SSW) 2,584 4.3 -13.2°
